Overview Statistics Trail Chart Weather Telemetry Raw packets
 

This is the latest recevied weather packets stored in our database for station/object KE8WMS. If no packets are shown the sender has not sent any weather packets the latest 10 day(s).

<< 51 52 53 54 55 56 57 >>
Time Temp. Humidity Pressure Rain* Wind** Luminosity Snow
1777508201 7.22° C 99% 1008.1 hPa 0 mm - 1 W/m² -
1777507898 7.22° C 99% 1008.1 hPa 0 mm - 1 W/m² -
1777507595 7.78° C 99% 1007.6 hPa 0 mm - 2 W/m² -
1777507292 7.78° C 99% 1007.6 hPa 0 mm - 2 W/m² -
1777506989 7.78° C 99% 1007.6 hPa 0 mm - 2 W/m² -
1777506686 7.78° C 99% 1007.5 hPa 0 mm - 3 W/m² -
1777506383 7.78° C 99% 1007.6 hPa 0 mm - 4 W/m² -
1777506079 7.78° C 99% 1007.2 hPa 0 mm - 9 W/m² -
1777505774 7.78° C 99% 1007.5 hPa 0 mm - 15 W/m² -
1777505472 7.78° C 99% 1007.4 hPa 0 mm - 11 W/m² -
1777505168 7.78° C 99% 1007.5 hPa 0 mm - 14 W/m² -
1777504865 7.78° C 99% 1007.5 hPa 0 mm - 16 W/m² -
1777504562 7.78° C 99% 1007.6 hPa 0 mm - 17 W/m² -
1777504257 7.78° C 99% 1007.5 hPa 0 mm - 22 W/m² -
1777503954 7.78° C 99% 1007.6 hPa 0 mm - 20 W/m² -
1777503650 7.78° C 99% 1007.6 hPa 0 mm - 24 W/m² -
1777503347 7.78° C 99% 1007.5 hPa 0 mm - 33 W/m² -
1777503043 7.78° C 99% 1007.6 hPa 0 mm - 32 W/m² -
1777502741 7.78° C 99% 1007.6 hPa 0 mm - 29 W/m² -
1777502437 7.78° C 99% 1007.6 hPa 0 mm - 40 W/m² -
1777502134 8.33° C 99% 1007.3 hPa 0 mm - 35 W/m² -
1777501832 7.78° C 99% 1007.8 hPa 0 mm - 41 W/m² -
1777501529 8.33° C 99% 1007.3 hPa 0 mm - 37 W/m² -
1777501226 8.33° C 99% 1007.4 hPa 0 mm - 37 W/m² -
1777500924 8.33° C 99% 1007.5 hPa 0 mm - 28 W/m² -

* Rain latest hour (hover to see other rain measurements)
** Current wind speed in m/s (hover to see current wind gust speed)